Tracking 25734 objects as of 26-May-2022
HD Live streaming from Space Station
objects crossing your sky now

RIDESHARE ADAPTER

Track RIDESHARE ADAPTER now!
10-day predictions


NORAD ID: 47435
Int'l Code: 2021-006Y
Perigee: 520.0 km
Apogee: 539.8 km
Inclination: 97.4 °
Period: 95.1 minutes
Semi major axis: 6900 km
RCS: Unknown
Launch date: January 24, 2021
Source: United States (US)
Launch site: AIR FORCE EASTERN TEST RANGE (AFETR)
aabbcc
Your satellite tracking list
Your tracking list is empty




NASA's NSSDC Master Catalog

Two Line Element Set (TLE):
1 47435U 21006Y   22146.04809303  .00004471  00000-0  24636-3 0  9994
2 47435  97.4408 205.6751 0014369  15.4745 344.6924 15.14419585 73883
Source of the keplerian elements: AFSPC